Time,TemperatureF,DewpointF,PressureIn,WindDirection,WindDirectionDegrees,WindSpeedMPH,WindSpeedGustMPH,Humidity,HourlyPrecipIn,Conditions,Clouds,dailyrainin,SoftwareType,DateUTC
2013-03-18 00:00:00,27.5,10.4,30.34,SSE,155,1.0,4.0,48,0.00,,,0.00,WeatherCatV1.02B3,2013-03-18 04:00:00,
2013-03-18 00:05:00,27.4,10.3,30.34,SSE,155,0.0,3.0,48,0.00,,,0.00,WeatherCatV1.02B3,2013-03-18 04:05:00,
2013-03-18 00:10:00,27.4,9.9,30.34,SSE,155,1.0,3.0,47,0.00,,,0.00,WeatherCatV1.02B3,2013-03-18 04:10:00,
2013-03-18 00:11:00,27.4,9.4,30.34,SSE,155,2.0,3.0,46,0.00,,,0.00,WeatherCatV1.02B3,2013-03-18 04:11:00,
2013-03-18 00:16:00,27.4,10.3,30.34,SSE,155,1.0,3.0,48,0.00,,,0.00,WeatherCatV1.02B3,2013-03-18 04:16:00,
2013-03-18 00:21:00,27.4,9.9,30.34,SSE,155,0.0,2.0,47,0.00,,,0.00,WeatherCatV1.02B3,2013-03-18 04:21:00,
2013-03-18 00:26:00,27.3,10.2,30.34,SSE,155,1.0,3.0,48,0.00,,,0.00,WeatherCatV1.02B3,2013-03-18 04:26:00,
2013-03-18 00:31:00,27.3,9.8,30.34,SSE,155,1.0,1.0,47,0.00,,,0.00,WeatherCatV1.02B3,2013-03-18 04:31:00,
2013-03-18 00:36:00,27.2,10.1,30.35,SSE,155,0.0,3.0,48,0.00,,,0.00,WeatherCatV1.02B3,2013-03-18 04:36:00,
2013-03-18 00:41:00,27.0,10.0,30.34,SSE,155,0.0,2.0,48,0.00,,,0.00,WeatherCatV1.02B3,2013-03-18 04:41:00,
2013-03-18 00:46:00,26.9,9.4,30.35,SSE,155,0.0,1.0,47,0.00,,,0.00,WeatherCatV1.02B3,2013-03-18 04:46:00,
2013-03-18 00:51:00,26.9,9.4,30.35,SSE,155,0.0,2.0,47,0.00,,,0.00,WeatherCatV1.02B3,2013-03-18 04:51:00,
2013-03-18 00:56:00,26.9,9.4,30.35,SSE,155,2.0,2.0,47,0.00,,,0.00,WeatherCatV1.02B3,2013-03-18 04:56:00,
2013-03-18 01:01:00,26.8,9.8,30.36,SSE,155,1.0,1.0,48,0.00,,,0.00,WeatherCatV1.02B3,2013-03-18 05:01:00,
2013-03-18 01:06:00,26.7,9.7,30.36,SSE,155,0.0,0.0,48,0.00,,,0.00,WeatherCatV1.02B3,2013-03-18 05:06:00,
2013-03-18 01:11:00,26.7,10.1,30.37,SSE,155,0.0,0.0,49,0.00,,,0.00,WeatherCatV1.02B3,2013-03-18 05:11:00,
2013-03-18 01:16:00,26.3,10.2,30.36,SSE,155,1.0,1.0,50,0.00,,,0.00,WeatherCatV1.02B3,2013-03-18 05:16:00,
2013-03-18 01:21:00,26.1,9.6,30.36,SSE,155,2.0,2.0,49,0.00,,,0.00,WeatherCatV1.02B3,2013-03-18 05:21:00,
2013-03-18 01:26:00,26.2,8.8,30.37,SSE,155,0.0,3.0,47,0.00,,,0.00,WeatherCatV1.02B3,2013-03-18 05:26:00,
2013-03-18 01:31:00,26.2,10.1,30.37,SSE,155,0.0,1.0,50,0.00,,,0.00,WeatherCatV1.02B3,2013-03-18 05:31:00,
2013-03-18 01:36:00,25.8,9.8,30.37,SSE,155,1.0,2.0,50,0.00,,,0.00,WeatherCatV1.02B3,2013-03-18 05:36:00,
2013-03-18 01:41:00,26.1,9.6,30.37,SSE,155,0.0,1.0,49,0.00,,,0.00,WeatherCatV1.02B3,2013-03-18 05:41:00,
2013-03-18 01:46:00,26.2,9.2,30.38,SSE,155,0.0,1.0,48,0.00,,,0.00,WeatherCatV1.02B3,2013-03-18 05:46:00,
2013-03-18 01:51:00,26.1,10.0,30.37,SSE,155,0.0,2.0,50,0.00,,,0.00,WeatherCatV1.02B3,2013-03-18 05:51:00,
2013-03-18 01:56:00,25.5,9.9,30.37,SSE,155,0.0,2.0,51,0.00,,,0.00,WeatherCatV1.02B3,2013-03-18 05:56:00,
2013-03-18 02:01:00,25.6,10.0,30.37,SSE,155,0.0,1.0,51,0.00,,,0.00,WeatherCatV1.02B3,2013-03-18 06:01:00,
2013-03-18 02:06:00,25.6,10.0,30.38,SSE,155,1.0,2.0,51,0.00,,,0.00,WeatherCatV1.02B3,2013-03-18 06:06:00,
2013-03-18 02:11:00,25.3,10.2,30.37,SSE,155,2.0,3.0,52,0.00,,,0.00,WeatherCatV1.02B3,2013-03-18 06:11:00,
2013-03-18 02:16:00,25.1,11.2,30.38,SSE,155,0.0,0.0,55,0.00,,,0.00,WeatherCatV1.02B3,2013-03-18 06:16:00,
2013-03-18 02:21:00,24.9,10.6,30.38,SSE,155,0.0,1.0,54,0.00,,,0.00,WeatherCatV1.02B3,2013-03-18 06:21:00,
2013-03-18 02:26:00,24.9,10.2,30.37,SSE,155,2.0,2.0,53,0.00,,,0.00,WeatherCatV1.02B3,2013-03-18 06:26:00,
2013-03-18 02:31:00,25.1,10.8,30.37,SSE,155,0.0,0.0,54,0.00,,,0.00,WeatherCatV1.02B3,2013-03-18 06:31:00,
2013-03-18 02:36:00,25.1,10.4,30.38,SSE,155,2.0,5.0,53,0.00,,,0.00,WeatherCatV1.02B3,2013-03-18 06:36:00,
2013-03-18 02:41:00,25.2,10.1,30.38,SSE,155,3.0,4.0,52,0.00,,,0.00,WeatherCatV1.02B3,2013-03-18 06:41:00,
2013-03-18 02:46:00,25.3,10.2,30.38,SSE,155,2.0,4.0,52,0.00,,,0.00,WeatherCatV1.02B3,2013-03-18 06:46:00,
2013-03-18 02:51:00,25.4,10.3,30.38,SSE,155,3.0,4.0,52,0.00,,,0.00,WeatherCatV1.02B3,2013-03-18 06:51:00,
2013-03-18 02:56:00,25.4,9.8,30.38,SSE,155,3.0,4.0,51,0.00,,,0.00,WeatherCatV1.02B3,2013-03-18 06:56:00,
2013-03-18 03:01:00,25.6,10.0,30.38,SSE,155,1.0,3.0,51,0.00,,,0.00,WeatherCatV1.02B3,2013-03-18 07:01:00,
2013-03-18 03:06:00,25.6,9.6,30.39,SSE,155,4.0,4.0,50,0.00,,,0.00,WeatherCatV1.02B3,2013-03-18 07:06:00,
2013-03-18 03:11:00,25.7,10.1,30.39,SSE,155,2.0,3.0,51,0.00,,,0.00,WeatherCatV1.02B3,2013-03-18 07:11:00,
2013-03-18 03:16:00,25.4,9.8,30.39,SSE,155,0.0,2.0,51,0.00,,,0.00,WeatherCatV1.02B3,2013-03-18 07:16:00,
2013-03-18 03:21:00,25.4,10.3,30.40,SSE,155,2.0,4.0,52,0.00,,,0.00,WeatherCatV1.02B3,2013-03-18 07:21:00,
2013-03-18 03:26:00,25.2,10.5,30.39,SSE,155,1.0,1.0,53,0.00,,,0.00,WeatherCatV1.02B3,2013-03-18 07:26:00,
2013-03-18 03:31:00,25.0,10.3,30.40,SSE,155,0.0,3.0,53,0.00,,,0.00,WeatherCatV1.02B3,2013-03-18 07:31:00,
2013-03-18 03:36:00,25.0,10.3,30.40,SSE,155,1.0,2.0,53,0.00,,,0.00,WeatherCatV1.02B3,2013-03-18 07:36:00,
2013-03-18 03:41:00,25.0,9.9,30.40,SSE,155,2.0,8.0,52,0.00,,,0.00,WeatherCatV1.02B3,2013-03-18 07:41:00,
2013-03-18 03:46:00,24.9,10.6,30.40,SSE,155,3.0,3.0,54,0.00,,,0.00,WeatherCatV1.02B3,2013-03-18 07:46:00,
2013-03-18 03:51:00,24.7,10.5,30.40,SSE,155,3.0,3.0,54,0.00,,,0.00,WeatherCatV1.02B3,2013-03-18 07:51:00,
2013-03-18 03:56:00,24.6,10.8,30.40,SSE,155,2.0,4.0,55,0.00,,,0.00,WeatherCatV1.02B3,2013-03-18 07:56:00,
2013-03-18 04:01:00,24.7,9.6,30.40,SSE,155,1.0,4.0,52,0.00,,,0.00,WeatherCatV1.02B3,2013-03-18 08:01:00,
2013-03-18 04:06:00,24.7,9.2,30.40,SSE,155,4.0,6.0,51,0.00,,,0.00,WeatherCatV1.02B3,2013-03-18 08:06:00,
2013-03-18 04:11:00,24.6,9.5,30.41,SSE,155,1.0,2.0,52,0.00,,,0.00,WeatherCatV1.02B3,2013-03-18 08:11:00,
2013-03-18 04:16:00,24.4,8.5,30.41,SSE,155,2.0,3.0,50,0.00,,,0.00,WeatherCatV1.02B3,2013-03-18 08:16:00,
2013-03-18 04:21:00,24.4,9.8,30.41,SSE,155,2.0,2.0,53,0.00,,,0.00,WeatherCatV1.02B3,2013-03-18 08:21:00,
2013-03-18 04:26:00,24.3,7.9,30.41,SSE,155,2.0,4.0,49,0.00,,,0.00,WeatherCatV1.02B3,2013-03-18 08:26:00,
2013-03-18 04:31:00,24.2,8.7,30.41,SSE,155,1.0,2.0,51,0.00,,,0.00,WeatherCatV1.02B3,2013-03-18 08:31:00,
2013-03-18 04:36:00,24.0,8.1,30.41,SSE,155,3.0,3.0,50,0.00,,,0.00,WeatherCatV1.02B3,2013-03-18 08:36:00,
2013-03-18 04:41:00,24.0,8.1,30.41,SSE,155,4.0,4.0,50,0.00,,,0.00,WeatherCatV1.02B3,2013-03-18 08:41:00,
2013-03-18 04:46:00,23.8,7.9,30.42,SSE,155,0.0,4.0,50,0.00,,,0.00,WeatherCatV1.02B3,2013-03-18 08:46:00,
2013-03-18 04:51:00,23.7,7.8,30.42,SSE,155,1.0,5.0,50,0.00,,,0.00,WeatherCatV1.02B3,2013-03-18 08:51:00,
2013-03-18 04:56:00,23.7,8.2,30.42,SSE,155,0.0,2.0,51,0.00,,,0.00,WeatherCatV1.02B3,2013-03-18 08:56:00,
2013-03-18 05:01:00,23.6,8.2,30.42,SSE,155,0.0,2.0,51,0.00,,,0.00,WeatherCatV1.02B3,2013-03-18 09:01:00,
2013-03-18 05:06:00,23.5,7.2,30.42,SSE,155,2.0,3.0,49,0.00,,,0.00,WeatherCatV1.02B3,2013-03-18 09:06:00,
2013-03-18 05:11:00,23.4,7.1,30.43,SSE,155,0.0,1.0,49,0.00,,,0.00,WeatherCatV1.02B3,2013-03-18 09:11:00,
2013-03-18 05:16:00,23.4,7.1,30.43,SSE,155,2.0,2.0,49,0.00,,,0.00,WeatherCatV1.02B3,2013-03-18 09:16:00,
2013-03-18 05:21:00,23.2,7.3,30.43,SSE,155,0.0,0.0,50,0.00,,,0.00,WeatherCatV1.02B3,2013-03-18 09:21:00,
2013-03-18 05:26:00,23.1,7.3,30.43,SSE,155,1.0,2.0,50,0.00,,,0.00,WeatherCatV1.02B3,2013-03-18 09:26:00,
2013-03-18 05:31:00,22.9,7.1,30.44,SSE,155,0.0,0.0,50,0.00,,,0.00,WeatherCatV1.02B3,2013-03-18 09:31:00,
2013-03-18 05:36:00,22.8,7.0,30.43,SSE,155,1.0,3.0,50,0.00,,,0.00,WeatherCatV1.02B3,2013-03-18 09:36:00,
2013-03-18 05:41:00,22.8,7.0,30.44,SSE,155,0.0,2.0,50,0.00,,,0.00,WeatherCatV1.02B3,2013-03-18 09:41:00,
2013-03-18 05:46:00,22.8,7.0,30.44,SSE,155,1.0,2.0,50,0.00,,,0.00,WeatherCatV1.02B3,2013-03-18 09:46:00,
2013-03-18 05:51:00,22.7,6.9,30.44,SSE,155,0.0,0.0,50,0.00,,,0.00,WeatherCatV1.02B3,2013-03-18 09:51:00,
2013-03-18 05:56:00,22.5,7.1,30.44,SSE,155,1.0,2.0,51,0.00,,,0.00,WeatherCatV1.02B3,2013-03-18 09:56:00,
2013-03-18 06:01:00,22.4,6.6,30.45,SSE,155,1.0,1.0,50,0.00,,,0.00,WeatherCatV1.02B3,2013-03-18 10:01:00,
2013-03-18 06:06:00,22.4,6.6,30.45,SSE,155,2.0,3.0,50,0.00,,,0.00,WeatherCatV1.02B3,2013-03-18 10:06:00,
2013-03-18 06:11:00,22.3,6.5,30.45,SSE,155,0.0,2.0,50,0.00,,,0.00,WeatherCatV1.02B3,2013-03-18 10:11:00,
2013-03-18 06:16:00,22.1,6.8,30.45,SSE,155,1.0,1.0,51,0.00,,,0.00,WeatherCatV1.02B3,2013-03-18 10:16:00,
2013-03-18 06:21:00,22.1,6.8,30.45,SSE,155,1.0,2.0,51,0.00,,,0.00,WeatherCatV1.02B3,2013-03-18 10:21:00,
2013-03-18 06:26:00,22.1,7.2,30.45,SSE,155,0.0,0.0,52,0.00,,,0.00,WeatherCatV1.02B3,2013-03-18 10:26:00,
2013-03-18 06:31:00,21.9,7.0,30.45,SSE,155,1.0,1.0,52,0.00,,,0.00,WeatherCatV1.02B3,2013-03-18 10:31:00,
2013-03-18 06:36:00,21.8,6.9,30.45,SSE,155,0.0,1.0,52,0.00,,,0.00,WeatherCatV1.02B3,2013-03-18 10:36:00,
2013-03-18 06:41:00,21.7,7.2,30.45,SSE,155,2.0,2.0,53,0.00,,,0.00,WeatherCatV1.02B3,2013-03-18 10:41:00,
2013-03-18 06:46:00,21.6,8.0,30.45,SSE,155,0.0,1.0,55,0.00,,,0.00,WeatherCatV1.02B3,2013-03-18 10:46:00,
2013-03-18 06:51:00,21.6,6.7,30.46,SSE,155,1.0,2.0,52,0.00,,,0.00,WeatherCatV1.02B3,2013-03-18 10:51:00,
2013-03-18 06:56:00,21.7,6.8,30.45,SSE,155,1.0,1.0,52,0.00,,,0.00,WeatherCatV1.02B3,2013-03-18 10:56:00,
2013-03-18 07:01:00,21.6,6.7,30.46,SSE,155,0.0,1.0,52,0.00,,,0.00,WeatherCatV1.02B3,2013-03-18 11:01:00,
2013-03-18 07:06:00,21.6,6.3,30.46,SSE,155,1.0,2.0,51,0.00,,,0.00,WeatherCatV1.02B3,2013-03-18 11:06:00,
2013-03-18 07:11:00,21.7,6.4,30.46,SSE,155,2.0,2.0,51,0.00,,,0.00,WeatherCatV1.02B3,2013-03-18 11:11:00,
2013-03-18 07:16:00,21.7,7.2,30.46,SSE,155,0.0,1.0,53,0.00,,,0.00,WeatherCatV1.02B3,2013-03-18 11:16:00,
2013-03-18 07:21:00,21.9,7.4,30.47,SSE,155,0.0,0.0,53,0.00,,,0.00,WeatherCatV1.02B3,2013-03-18 11:21:00,
2013-03-18 07:26:00,22.1,7.2,30.47,SSE,155,1.0,1.0,52,0.00,,,0.00,WeatherCatV1.02B3,2013-03-18 11:26:00,
2013-03-18 07:31:00,22.3,7.4,30.47,SSE,155,3.0,3.0,52,0.00,,,0.00,WeatherCatV1.02B3,2013-03-18 11:31:00,
2013-03-18 07:36:00,22.5,6.7,30.46,SSE,155,1.0,1.0,50,0.00,,,0.00,WeatherCatV1.02B3,2013-03-18 11:36:00,
2013-03-18 07:41:00,22.7,7.8,30.47,SSE,155,0.0,1.0,52,0.00,,,0.00,WeatherCatV1.02B3,2013-03-18 11:41:00,
2013-03-18 07:46:00,22.8,6.5,30.46,SSE,155,0.0,1.0,49,0.00,,,0.00,WeatherCatV1.02B3,2013-03-18 11:46:00,
2013-03-18 07:51:00,22.9,7.1,30.46,SSE,155,0.0,4.0,50,0.00,,,0.00,WeatherCatV1.02B3,2013-03-18 11:51:00,
2013-03-18 07:56:00,23.0,6.7,30.47,SSE,155,1.0,3.0,49,0.00,,,0.00,WeatherCatV1.02B3,2013-03-18 11:56:00,
2013-03-18 08:01:00,23.2,7.3,30.47,SSE,155,0.0,2.0,50,0.00,,,0.00,WeatherCatV1.02B3,2013-03-18 12:01:00,
2013-03-18 08:06:00,23.3,6.5,30.47,SSE,155,1.0,3.0,48,0.00,,,0.00,WeatherCatV1.02B3,2013-03-18 12:06:00,
2013-03-18 08:11:00,23.5,7.2,30.47,SSE,155,0.0,2.0,49,0.00,,,0.00,WeatherCatV1.02B3,2013-03-18 12:11:00,
2013-03-18 08:16:00,23.9,6.2,30.47,SSE,155,1.0,4.0,46,0.00,,,0.00,WeatherCatV1.02B3,2013-03-18 12:16:00,
2013-03-18 08:21:00,24.0,5.8,30.47,SSE,155,0.0,1.0,45,0.00,,,0.00,WeatherCatV1.02B3,2013-03-18 12:21:00,
2013-03-18 08:26:00,24.3,5.1,30.47,SSE,155,2.0,5.0,43,0.00,,,0.00,WeatherCatV1.02B3,2013-03-18 12:26:00,
2013-03-18 08:31:00,24.7,5.4,30.47,SSE,155,4.0,4.0,43,0.00,,,0.00,WeatherCatV1.02B3,2013-03-18 12:31:00,
2013-03-18 08:36:00,25.0,4.7,30.47,SSE,155,0.0,5.0,41,0.00,,,0.00,WeatherCatV1.02B3,2013-03-18 12:36:00,
2013-03-18 08:41:00,25.4,5.5,30.47,SSE,155,1.0,3.0,42,0.00,,,0.00,WeatherCatV1.02B3,2013-03-18 12:41:00,
2013-03-18 08:46:00,25.5,4.6,30.46,SSE,155,0.0,4.0,40,0.00,,,0.00,WeatherCatV1.02B3,2013-03-18 12:46:00,
2013-03-18 08:51:00,25.7,5.3,30.47,SSE,155,1.0,2.0,41,0.00,,,0.00,WeatherCatV1.02B3,2013-03-18 12:51:00,
2013-03-18 09:00:00,26.2,4.1,30.46,SSE,155,0.0,6.0,38,0.00,,,0.00,WeatherCatV1.02B3,2013-03-18 13:00:00,
2013-03-18 09:05:00,26.6,5.6,30.46,SSE,155,0.0,2.0,40,0.00,,,0.00,WeatherCatV1.02B3,2013-03-18 13:05:00,
2013-03-18 09:10:00,27.2,6.1,30.46,SSE,155,1.0,3.0,40,0.00,,,0.00,WeatherCatV1.02B3,2013-03-18 13:10:00,
2013-03-18 09:15:00,27.2,5.6,30.46,SSE,155,2.0,3.0,39,0.00,,,0.00,WeatherCatV1.02B3,2013-03-18 13:15:00,
2013-03-18 09:20:00,27.1,5.5,30.46,SSE,155,0.0,2.0,39,0.00,,,0.00,WeatherCatV1.02B3,2013-03-18 13:20:00,
2013-03-18 09:25:00,27.0,5.4,30.46,SSE,155,3.0,4.0,39,0.00,,,0.00,WeatherCatV1.02B3,2013-03-18 13:25:00,
2013-03-18 09:30:00,26.9,4.1,30.47,SSE,155,1.0,3.0,37,0.00,,,0.00,WeatherCatV1.02B3,2013-03-18 13:30:00,
2013-03-18 09:35:00,27.0,4.8,30.45,SSE,155,1.0,1.0,38,0.00,,,0.00,WeatherCatV1.02B3,2013-03-18 13:35:00,
2013-03-18 09:40:00,27.3,6.2,30.46,SSE,155,1.0,1.0,40,0.00,,,0.00,WeatherCatV1.02B3,2013-03-18 13:40:00,
2013-03-18 09:45:00,27.6,5.4,30.46,SSE,155,0.0,1.0,38,0.00,,,0.00,WeatherCatV1.02B3,2013-03-18 13:45:00,
2013-03-18 09:50:00,28.0,6.3,30.46,SSE,155,0.0,0.0,39,0.00,,,0.00,WeatherCatV1.02B3,2013-03-18 13:50:00,
2013-03-18 09:55:00,28.5,6.2,30.46,SSE,155,2.0,2.0,38,0.00,,,0.00,WeatherCatV1.02B3,2013-03-18 13:55:00,
2013-03-18 10:00:00,28.5,4.4,30.45,SSE,155,0.0,3.0,35,0.00,,,0.00,WeatherCatV1.02B3,2013-03-18 14:00:00,
2013-03-18 10:05:00,28.6,5.1,30.46,SSE,155,0.0,0.0,36,0.00,,,0.00,WeatherCatV1.02B3,2013-03-18 14:05:00,
2013-03-18 10:10:00,29.0,4.2,30.45,SSE,155,1.0,6.0,34,0.00,,,0.00,WeatherCatV1.02B3,2013-03-18 14:10:00,
2013-03-18 10:15:00,29.2,4.4,30.45,SSE,155,1.0,4.0,34,0.00,,,0.00,WeatherCatV1.02B3,2013-03-18 14:15:00,
2013-03-18 10:20:00,29.1,4.3,30.45,SSE,155,1.0,4.0,34,0.00,,,0.00,WeatherCatV1.02B3,2013-03-18 14:20:00,
2013-03-18 10:25:00,29.1,4.3,30.46,SSE,155,1.0,2.0,34,0.00,,,0.00,WeatherCatV1.02B3,2013-03-18 14:25:00,
2013-03-18 10:30:00,29.4,3.9,30.45,SSE,155,0.0,3.0,33,0.00,,,0.00,WeatherCatV1.02B3,2013-03-18 14:30:00,
2013-03-18 10:35:00,30.2,5.2,30.46,SSE,155,0.0,1.0,34,0.00,,,0.00,WeatherCatV1.02B3,2013-03-18 14:35:00,
2013-03-18 10:40:00,30.1,3.8,30.46,SSE,155,0.0,3.0,32,0.00,,,0.00,WeatherCatV1.02B3,2013-03-18 14:40:00,
2013-03-18 10:45:00,30.0,3.8,30.45,SSE,155,3.0,3.0,32,0.00,,,0.00,WeatherCatV1.02B3,2013-03-18 14:45:00,
2013-03-18 10:50:00,30.3,4.7,30.45,SSE,155,2.0,3.0,33,0.00,,,0.00,WeatherCatV1.02B3,2013-03-18 14:50:00,
2013-03-18 10:55:00,30.4,4.1,30.45,SSE,155,0.0,2.0,32,0.00,,,0.00,WeatherCatV1.02B3,2013-03-18 14:55:00,
2013-03-18 11:00:00,31.4,5.0,30.45,SSE,155,1.0,1.0,32,0.00,,,0.00,WeatherCatV1.02B3,2013-03-18 15:00:00,
2013-03-18 11:05:00,31.7,5.9,30.45,SSE,155,0.0,2.0,33,0.00,,,0.00,WeatherCatV1.02B3,2013-03-18 15:05:00,
2013-03-18 11:10:00,31.6,5.2,30.44,SSE,155,0.0,1.0,32,0.00,,,0.00,WeatherCatV1.02B3,2013-03-18 15:10:00,
2013-03-18 11:15:00,31.4,5.0,30.44,SSE,155,5.0,6.0,32,0.00,,,0.00,WeatherCatV1.02B3,2013-03-18 15:15:00,
2013-03-18 11:20:00,32.0,5.5,30.44,SSE,155,3.0,4.0,32,0.00,,,0.00,WeatherCatV1.02B3,2013-03-18 15:20:00,
2013-03-18 11:25:00,32.1,4.9,30.44,SSE,155,1.0,4.0,31,0.00,,,0.00,WeatherCatV1.02B3,2013-03-18 15:25:00,
2013-03-18 11:30:00,32.7,6.8,30.44,SSE,155,2.0,4.0,33,0.00,,,0.00,WeatherCatV1.02B3,2013-03-18 15:30:00,
2013-03-18 11:35:00,32.7,5.4,30.44,SSE,155,2.0,2.0,31,0.00,,,0.00,WeatherCatV1.02B3,2013-03-18 15:35:00,
2013-03-18 11:40:00,32.7,4.7,30.44,SSE,155,0.0,1.0,30,0.00,,,0.00,WeatherCatV1.02B3,2013-03-18 15:40:00,
2013-03-18 11:45:00,33.1,4.3,30.44,SSE,155,1.0,2.0,29,0.00,,,0.00,WeatherCatV1.02B3,2013-03-18 15:45:00,
2013-03-18 11:50:00,33.6,6.9,30.43,SSE,155,2.0,2.0,32,0.00,,,0.00,WeatherCatV1.02B3,2013-03-18 15:50:00,
2013-03-18 11:55:00,34.0,6.6,30.44,SSE,155,3.0,3.0,31,0.00,,,0.00,WeatherCatV1.02B3,2013-03-18 15:55:00,
2013-03-18 12:00:00,33.2,4.4,30.44,SSE,155,0.0,1.0,29,0.00,,,0.00,WeatherCatV1.02B3,2013-03-18 16:00:00,
2013-03-18 12:05:00,33.1,5.1,30.44,SSE,155,2.0,2.0,30,0.00,,,0.00,WeatherCatV1.02B3,2013-03-18 16:05:00,
2013-03-18 12:10:00,33.0,7.7,30.44,SSE,155,2.0,5.0,34,0.00,,,0.00,WeatherCatV1.02B3,2013-03-18 16:10:00,
2013-03-18 12:15:00,33.1,8.5,30.44,SSE,155,1.0,3.0,35,0.00,,,0.00,WeatherCatV1.02B3,2013-03-18 16:15:00,
2013-03-18 12:20:00,33.1,9.1,30.44,SSE,155,3.0,6.0,36,0.00,,,0.00,WeatherCatV1.02B3,2013-03-18 16:20:00,
2013-03-18 12:25:00,32.9,9.5,30.44,SSE,155,0.0,4.0,37,0.00,,,0.00,WeatherCatV1.02B3,2013-03-18 16:25:00,
2013-03-18 12:30:00,32.8,10.0,30.44,SSE,155,2.0,2.0,38,0.00,,,0.00,WeatherCatV1.02B3,2013-03-18 16:30:00,
2013-03-18 12:35:00,32.8,9.4,30.44,SSE,155,1.0,4.0,37,0.00,,,0.00,WeatherCatV1.02B3,2013-03-18 16:35:00,
2013-03-18 12:40:00,33.0,9.6,30.44,SSE,155,3.0,5.0,37,0.00,,,0.00,WeatherCatV1.02B3,2013-03-18 16:40:00,
2013-03-18 12:45:00,32.9,10.1,30.44,SSE,155,1.0,4.0,38,0.00,,,0.00,WeatherCatV1.02B3,2013-03-18 16:45:00,
2013-03-18 12:50:00,32.8,10.0,30.43,SSE,155,4.0,5.0,38,0.00,,,0.00,WeatherCatV1.02B3,2013-03-18 16:50:00,
2013-03-18 12:55:00,32.4,10.2,30.44,SSE,155,1.0,1.0,39,0.00,,,0.00,WeatherCatV1.02B3,2013-03-18 16:55:00,
2013-03-18 13:00:00,32.2,9.5,30.44,SSE,155,5.0,5.0,38,0.00,,,0.00,WeatherCatV1.02B3,2013-03-18 17:00:00,
2013-03-18 13:05:00,32.5,11.4,30.43,SSE,155,0.0,4.0,41,0.00,,,0.00,WeatherCatV1.02B3,2013-03-18 17:05:00,
2013-03-18 13:10:00,32.4,10.2,30.44,SSE,155,2.0,3.0,39,0.00,,,0.00,WeatherCatV1.02B3,2013-03-18 17:10:00,
2013-03-18 13:15:00,32.4,11.4,30.43,SSE,155,2.0,4.0,41,0.00,,,0.00,WeatherCatV1.02B3,2013-03-18 17:15:00,
2013-03-18 13:20:00,32.3,11.8,30.43,SSE,155,3.0,3.0,42,0.00,,,0.00,WeatherCatV1.02B3,2013-03-18 17:20:00,
2013-03-18 13:25:00,32.2,11.7,30.42,SSE,155,1.0,3.0,42,0.00,,,0.00,WeatherCatV1.02B3,2013-03-18 17:25:00,
2013-03-18 13:30:00,32.3,12.3,30.43,SSE,155,5.0,5.0,43,0.00,,,0.00,WeatherCatV1.02B3,2013-03-18 17:30:00,
2013-03-18 13:35:00,32.1,12.2,30.42,SSE,155,1.0,3.0,43,0.00,,,0.00,WeatherCatV1.02B3,2013-03-18 17:35:00,
2013-03-18 13:40:00,32.1,12.2,30.42,SSE,155,0.0,2.0,43,0.00,,,0.00,WeatherCatV1.02B3,2013-03-18 17:40:00,
2013-03-18 13:45:00,32.4,12.4,30.42,SSE,155,2.0,4.0,43,0.00,,,0.00,WeatherCatV1.02B3,2013-03-18 17:45:00,
2013-03-18 13:50:00,32.2,11.7,30.42,SSE,155,0.0,5.0,42,0.00,,,0.00,WeatherCatV1.02B3,2013-03-18 17:50:00,
2013-03-18 13:55:00,32.4,11.9,30.41,SSE,155,5.0,5.0,42,0.00,,,0.00,WeatherCatV1.02B3,2013-03-18 17:55:00,
2013-03-18 14:00:00,32.8,11.7,30.40,SSE,155,1.0,3.0,41,0.00,,,0.00,WeatherCatV1.02B3,2013-03-18 18:00:00,
2013-03-18 14:05:00,33.1,12.0,30.40,SSE,155,3.0,5.0,41,0.00,,,0.00,WeatherCatV1.02B3,2013-03-18 18:05:00,
2013-03-18 14:10:00,33.0,10.8,30.39,SSE,155,1.0,4.0,39,0.00,,,0.00,WeatherCatV1.02B3,2013-03-18 18:10:00,
2013-03-18 14:15:00,32.5,9.7,30.39,SSE,155,3.0,4.0,38,0.00,,,0.00,WeatherCatV1.02B3,2013-03-18 18:15:00,
2013-03-18 14:20:00,32.4,9.1,30.38,SSE,155,5.0,6.0,37,0.00,,,0.00,WeatherCatV1.02B3,2013-03-18 18:20:00,
2013-03-18 14:25:00,32.7,9.9,30.38,SSE,155,5.0,6.0,38,0.00,,,0.00,WeatherCatV1.02B3,2013-03-18 18:25:00,
2013-03-18 14:30:00,32.5,9.2,30.37,SSE,155,2.0,5.0,37,0.00,,,0.00,WeatherCatV1.02B3,2013-03-18 18:30:00,
2013-03-18 14:35:00,32.6,9.8,30.37,SSE,155,1.0,3.0,38,0.00,,,0.00,WeatherCatV1.02B3,2013-03-18 18:35:00,
2013-03-18 14:40:00,32.9,9.5,30.36,SSE,155,3.0,3.0,37,0.00,,,0.00,WeatherCatV1.02B3,2013-03-18 18:40:00,
2013-03-18 14:45:00,32.8,10.6,30.36,SSE,155,2.0,2.0,39,0.00,,,0.00,WeatherCatV1.02B3,2013-03-18 18:45:00,
2013-03-18 14:50:00,32.8,11.2,30.36,SSE,155,0.0,4.0,40,0.00,,,0.00,WeatherCatV1.02B3,2013-03-18 18:50:00,
2013-03-18 14:55:00,32.7,11.6,30.36,SSE,155,0.0,2.0,41,0.00,,,0.00,WeatherCatV1.02B3,2013-03-18 18:55:00,
2013-03-18 15:00:00,32.9,12.9,30.36,SSE,155,1.0,4.0,43,0.00,,,0.00,WeatherCatV1.02B3,2013-03-18 19:00:00,
2013-03-18 15:05:00,32.9,13.4,30.36,SSE,155,3.0,3.0,44,0.00,,,0.00,WeatherCatV1.02B3,2013-03-18 19:05:00,
2013-03-18 15:10:00,33.0,13.5,30.36,SSE,155,1.0,4.0,44,0.00,,,0.00,WeatherCatV1.02B3,2013-03-18 19:10:00,
2013-03-18 15:15:00,32.9,13.9,30.36,SSE,155,2.0,4.0,45,0.00,,,0.00,WeatherCatV1.02B3,2013-03-18 19:15:00,
2013-03-18 15:20:00,33.2,13.2,30.36,SSE,155,0.0,2.0,43,0.00,,,0.00,WeatherCatV1.02B3,2013-03-18 19:20:00,
2013-03-18 15:25:00,33.3,13.8,30.36,SSE,155,0.0,2.0,44,0.00,,,0.00,WeatherCatV1.02B3,2013-03-18 19:25:00,
2013-03-18 15:30:00,33.3,14.3,30.36,SSE,155,1.0,3.0,45,0.00,,,0.00,WeatherCatV1.02B3,2013-03-18 19:30:00,
2013-03-18 15:35:00,33.3,14.3,30.36,SSE,155,1.0,6.0,45,0.00,,,0.00,WeatherCatV1.02B3,2013-03-18 19:35:00,
2013-03-18 15:40:00,33.1,15.1,30.34,SSE,155,3.0,3.0,47,0.00,,,0.00,WeatherCatV1.02B3,2013-03-18 19:40:00,
2013-03-18 15:45:00,32.9,14.9,30.34,SSE,155,2.0,4.0,47,0.00,,,0.00,WeatherCatV1.02B3,2013-03-18 19:45:00,
2013-03-18 15:50:00,32.9,14.9,30.34,SSE,155,2.0,7.0,47,0.00,,,0.00,WeatherCatV1.02B3,2013-03-18 19:50:00,
2013-03-18 15:55:00,32.8,15.3,30.33,SSE,155,2.0,4.0,48,0.00,,,0.00,WeatherCatV1.02B3,2013-03-18 19:55:00,
2013-03-18 16:00:00,32.7,15.7,30.33,SSE,155,1.0,3.0,49,0.00,,,0.00,WeatherCatV1.02B3,2013-03-18 20:00:00,
2013-03-18 16:05:00,32.7,16.1,30.33,SSE,155,4.0,6.0,50,0.00,,,0.00,WeatherCatV1.02B3,2013-03-18 20:05:00,
2013-03-18 16:10:00,32.6,15.6,30.32,SSE,155,5.0,5.0,49,0.00,,,0.00,WeatherCatV1.02B3,2013-03-18 20:10:00,
2013-03-18 16:15:00,32.5,16.4,30.32,SSE,155,2.0,2.0,51,0.00,,,0.00,WeatherCatV1.02B3,2013-03-18 20:15:00,
2013-03-18 16:20:00,32.8,17.1,30.32,SSE,155,4.0,4.0,52,0.00,,,0.00,WeatherCatV1.02B3,2013-03-18 20:20:00,
2013-03-18 16:25:00,32.7,17.0,30.31,SSE,155,1.0,6.0,52,0.00,,,0.00,WeatherCatV1.02B3,2013-03-18 20:25:00,
2013-03-18 16:30:00,32.5,17.3,30.32,SSE,155,3.0,3.0,53,0.00,,,0.00,WeatherCatV1.02B3,2013-03-18 20:30:00,
2013-03-18 16:35:00,32.5,17.7,30.32,SSE,155,1.0,3.0,54,0.00,,,0.00,WeatherCatV1.02B3,2013-03-18 20:35:00,
2013-03-18 16:40:00,32.4,18.5,30.32,SSE,155,2.0,6.0,56,0.00,,,0.00,WeatherCatV1.02B3,2013-03-18 20:40:00,
2013-03-18 16:45:00,32.2,18.7,30.32,SSE,155,0.0,3.0,57,0.00,,,0.00,WeatherCatV1.02B3,2013-03-18 20:45:00,
2013-03-18 16:50:00,32.3,19.2,30.31,SSE,155,1.0,2.0,58,0.00,,,0.00,WeatherCatV1.02B3,2013-03-18 20:50:00,
2013-03-18 16:55:00,32.3,18.8,30.32,SSE,155,1.0,3.0,57,0.00,,,0.00,WeatherCatV1.02B3,2013-03-18 20:55:00,
2013-03-18 17:00:00,32.1,19.4,30.32,SSE,155,2.0,2.0,59,0.00,,,0.00,WeatherCatV1.02B3,2013-03-18 21:00:00,
2013-03-18 17:05:00,32.0,19.3,30.32,SSE,155,5.0,5.0,59,0.00,,,0.00,WeatherCatV1.02B3,2013-03-18 21:05:00,
2013-03-18 17:10:00,31.8,19.5,30.32,SSE,155,3.0,5.0,60,0.00,,,0.00,WeatherCatV1.02B3,2013-03-18 21:10:00,
2013-03-18 17:15:00,31.7,19.4,30.32,SSE,155,1.0,4.0,60,0.00,,,0.00,WeatherCatV1.02B3,2013-03-18 21:15:00,
2013-03-18 17:20:00,31.7,19.4,30.32,SSE,155,3.0,4.0,60,0.00,,,0.00,WeatherCatV1.02B3,2013-03-18 21:20:00,
2013-03-18 17:25:00,31.7,19.4,30.32,SSE,155,3.0,9.0,60,0.00,,,0.00,WeatherCatV1.02B3,2013-03-18 21:25:00,
2013-03-18 17:30:00,31.7,19.4,30.32,SSE,155,3.0,4.0,60,0.00,,,0.00,WeatherCatV1.02B3,2013-03-18 21:30:00,
2013-03-18 17:35:00,31.7,19.8,30.31,SSE,155,0.0,4.0,61,0.00,,,0.00,WeatherCatV1.02B3,2013-03-18 21:35:00,
2013-03-18 17:40:00,31.7,19.8,30.31,SSE,155,1.0,3.0,61,0.00,,,0.00,WeatherCatV1.02B3,2013-03-18 21:40:00,
2013-03-18 17:45:00,31.8,20.3,30.31,SSE,155,0.0,1.0,62,0.00,,,0.00,WeatherCatV1.02B3,2013-03-18 21:45:00,
2013-03-18 17:50:00,31.8,20.7,30.31,SSE,155,2.0,5.0,63,0.00,,,0.00,WeatherCatV1.02B3,2013-03-18 21:50:00,
2013-03-18 17:55:00,31.8,20.3,30.31,SSE,155,0.0,2.0,62,0.00,,,0.00,WeatherCatV1.02B3,2013-03-18 21:55:00,
2013-03-18 18:00:00,31.8,19.9,30.31,SSE,155,0.0,4.0,61,0.00,,,0.00,WeatherCatV1.02B3,2013-03-18 22:00:00,
2013-03-18 18:05:00,31.9,20.0,30.31,SSE,155,3.0,3.0,61,0.00,,,0.00,WeatherCatV1.02B3,2013-03-18 22:05:00,
2013-03-18 18:10:00,31.9,20.0,30.31,SSE,155,2.0,4.0,61,0.00,,,0.00,WeatherCatV1.02B3,2013-03-18 22:10:00,
2013-03-18 18:15:00,31.9,20.0,30.31,SSE,155,0.0,1.0,61,0.00,,,0.00,WeatherCatV1.02B3,2013-03-18 22:15:00,
2013-03-18 18:20:00,31.9,20.4,30.30,SSE,155,1.0,5.0,62,0.00,,,0.00,WeatherCatV1.02B3,2013-03-18 22:20:00,
2013-03-18 18:25:00,31.9,20.8,30.30,SSE,155,1.0,3.0,63,0.00,,,0.00,WeatherCatV1.02B3,2013-03-18 22:25:00,
2013-03-18 18:30:00,31.9,20.8,30.30,SSE,155,2.0,4.0,63,0.00,,,0.00,WeatherCatV1.02B3,2013-03-18 22:30:00,
2013-03-18 18:35:00,31.9,21.1,30.31,SSE,155,2.0,5.0,64,0.00,,,0.00,WeatherCatV1.02B3,2013-03-18 22:35:00,
2013-03-18 18:40:00,32.0,21.2,30.31,SSE,155,0.0,3.0,64,0.00,,,0.00,WeatherCatV1.02B3,2013-03-18 22:40:00,
2013-03-18 18:45:00,32.0,21.6,30.31,SSE,155,1.0,1.0,65,0.00,,,0.00,WeatherCatV1.02B3,2013-03-18 22:45:00,
2013-03-18 18:50:00,32.0,21.6,30.31,SSE,155,0.0,4.0,65,0.00,,,0.00,WeatherCatV1.02B3,2013-03-18 22:50:00,
2013-03-18 18:55:00,32.1,21.7,30.31,SSE,155,0.0,5.0,65,0.00,,,0.00,WeatherCatV1.02B3,2013-03-18 22:55:00,
2013-03-18 19:00:00,32.1,22.0,30.30,SSE,155,1.0,3.0,66,0.00,,,0.00,WeatherCatV1.02B3,2013-03-18 23:00:00,
2013-03-18 19:05:00,32.2,22.1,30.30,SSE,155,0.0,4.0,66,0.00,,,0.00,WeatherCatV1.02B3,2013-03-18 23:05:00,
2013-03-18 19:10:00,32.2,22.1,30.30,SSE,155,3.0,4.0,66,0.00,,,0.00,WeatherCatV1.02B3,2013-03-18 23:10:00,
2013-03-18 19:15:00,32.3,21.9,30.30,SSE,155,4.0,6.0,65,0.00,,,0.00,WeatherCatV1.02B3,2013-03-18 23:15:00,
2013-03-18 19:20:00,32.3,21.9,30.29,SSE,155,4.0,7.0,65,0.00,,,0.00,WeatherCatV1.02B3,2013-03-18 23:20:00,
2013-03-18 19:25:00,32.3,21.9,30.28,SSE,155,4.0,8.0,65,0.00,,,0.00,WeatherCatV1.02B3,2013-03-18 23:25:00,
2013-03-18 19:30:00,32.3,21.9,30.28,SSE,155,1.0,6.0,65,0.00,,,0.00,WeatherCatV1.02B3,2013-03-18 23:30:00,
2013-03-18 19:35:00,32.2,22.8,30.28,SSE,155,6.0,8.0,68,0.00,,,0.00,WeatherCatV1.02B3,2013-03-18 23:35:00,
2013-03-18 19:40:00,32.1,23.4,30.28,SSE,155,5.0,6.0,70,0.00,,,0.00,WeatherCatV1.02B3,2013-03-18 23:40:00,
2013-03-18 19:45:00,32.1,23.8,30.28,SSE,155,5.0,9.0,71,0.00,,,0.00,WeatherCatV1.02B3,2013-03-18 23:45:00,
2013-03-18 19:50:00,31.8,24.5,30.27,SSE,155,6.0,8.0,74,0.00,,,0.00,WeatherCatV1.02B3,2013-03-18 23:50:00,
2013-03-18 19:55:00,31.6,24.6,30.28,SSE,155,4.0,9.0,75,0.00,,,0.00,WeatherCatV1.02B3,2013-03-18 23:55:00,
2013-03-18 20:00:00,31.5,24.8,30.27,SSE,155,0.0,6.0,76,0.00,,,0.00,WeatherCatV1.02B3,2013-03-19 00:00:00,
2013-03-18 20:05:00,31.4,25.0,30.27,SSE,155,4.0,10.0,77,0.00,,,0.00,WeatherCatV1.02B3,2013-03-19 00:05:00,
2013-03-18 20:10:00,31.1,25.7,30.27,SSE,155,2.0,3.0,80,0.00,,,0.00,WeatherCatV1.02B3,2013-03-19 00:10:00,
2013-03-18 20:15:00,30.8,26.3,30.27,SSE,155,2.0,6.0,83,0.00,,,0.00,WeatherCatV1.02B3,2013-03-19 00:15:00,
2013-03-18 20:20:00,30.6,26.4,30.27,SSE,155,1.0,4.0,84,0.00,,,0.00,WeatherCatV1.02B3,2013-03-19 00:20:00,
2013-03-18 20:25:00,30.6,26.9,30.27,SSE,155,3.0,5.0,86,0.00,,,0.00,WeatherCatV1.02B3,2013-03-19 00:25:00,
2013-03-18 20:30:00,30.4,27.0,30.27,SSE,155,1.0,4.0,87,0.00,,,0.00,WeatherCatV1.02B3,2013-03-19 00:30:00,
2013-03-18 20:35:00,30.1,26.7,30.27,SSE,155,3.0,6.0,87,0.00,,,0.00,WeatherCatV1.02B3,2013-03-19 00:35:00,
2013-03-18 20:40:00,30.0,26.6,30.26,SSE,155,2.0,5.0,87,0.00,,,0.00,WeatherCatV1.02B3,2013-03-19 00:40:00,
2013-03-18 20:45:00,29.9,26.8,30.26,SSE,155,2.0,5.0,88,0.00,,,0.00,WeatherCatV1.02B3,2013-03-19 00:45:00,
2013-03-18 20:50:00,29.7,26.9,30.26,SSE,155,3.0,7.0,89,0.00,,,0.00,WeatherCatV1.02B3,2013-03-19 00:50:00,
2013-03-18 20:55:00,29.7,26.9,30.25,SSE,155,0.0,2.0,89,0.00,,,0.00,WeatherCatV1.02B3,2013-03-19 00:55:00,
2013-03-18 21:00:00,29.7,26.9,30.25,SSE,155,2.0,3.0,89,0.00,,,0.00,WeatherCatV1.02B3,2013-03-19 01:00:00,
2013-03-18 21:05:00,29.7,26.9,30.25,SSE,155,4.0,5.0,89,0.00,,,0.00,WeatherCatV1.02B3,2013-03-19 01:05:00,
2013-03-18 21:10:00,29.7,26.9,30.24,SSE,155,2.0,4.0,89,0.00,,,0.00,WeatherCatV1.02B3,2013-03-19 01:10:00,
2013-03-18 21:15:00,29.8,27.0,30.24,SSE,155,2.0,3.0,89,0.00,,,0.00,WeatherCatV1.02B3,2013-03-19 01:15:00,
2013-03-18 21:20:00,29.8,27.0,30.23,SSE,155,2.0,3.0,89,0.00,,,0.00,WeatherCatV1.02B3,2013-03-19 01:20:00,
2013-03-18 21:25:00,29.8,27.0,30.23,SSE,155,2.0,6.0,89,0.00,,,0.00,WeatherCatV1.02B3,2013-03-19 01:25:00,
2013-03-18 21:30:00,29.7,27.1,30.23,SSE,155,0.0,6.0,90,0.00,,,0.00,WeatherCatV1.02B3,2013-03-19 01:30:00,
2013-03-18 21:35:00,29.7,27.1,30.23,SSE,155,4.0,4.0,90,0.00,,,0.00,WeatherCatV1.02B3,2013-03-19 01:35:00,
2013-03-18 21:40:00,29.6,27.0,30.23,SSE,155,3.0,5.0,90,0.00,,,0.00,WeatherCatV1.02B3,2013-03-19 01:40:00,
2013-03-18 21:45:00,29.6,27.0,30.22,SSE,155,4.0,4.0,90,0.00,,,0.00,WeatherCatV1.02B3,2013-03-19 01:45:00,
2013-03-18 21:50:00,29.5,27.2,30.22,SSE,155,3.0,4.0,91,0.00,,,0.00,WeatherCatV1.02B3,2013-03-19 01:50:00,
2013-03-18 21:55:00,29.4,27.1,30.22,SSE,155,3.0,3.0,91,0.00,,,0.00,WeatherCatV1.02B3,2013-03-19 01:55:00,
2013-03-18 22:00:00,29.3,27.3,30.22,SSE,155,3.0,5.0,92,0.00,,,0.00,WeatherCatV1.02B3,2013-03-19 02:00:00,
2013-03-18 22:05:00,29.2,27.4,30.22,SSE,155,2.0,7.0,93,0.00,,,0.00,WeatherCatV1.02B3,2013-03-19 02:05:00,
2013-03-18 22:10:00,29.2,27.4,30.21,SSE,155,4.0,5.0,93,0.00,,,0.00,WeatherCatV1.02B3,2013-03-19 02:10:00,
2013-03-18 22:15:00,29.1,27.6,30.21,SSE,155,7.0,7.0,94,0.00,,,0.00,WeatherCatV1.02B3,2013-03-19 02:15:00,
2013-03-18 22:20:00,29.1,27.6,30.21,SSE,155,2.0,4.0,94,0.00,,,0.00,WeatherCatV1.02B3,2013-03-19 02:20:00,
2013-03-18 22:25:00,29.2,27.7,30.20,SSE,155,5.0,5.0,94,0.00,,,0.00,WeatherCatV1.02B3,2013-03-19 02:25:00,
2013-03-18 22:30:00,29.2,28.0,30.20,SSE,155,2.0,6.0,95,0.00,,,0.00,WeatherCatV1.02B3,2013-03-19 02:30:00,
2013-03-18 22:35:00,29.3,28.0,30.19,SSE,155,2.0,5.0,95,0.00,,,0.00,WeatherCatV1.02B3,2013-03-19 02:35:00,
2013-03-18 22:40:00,29.3,28.0,30.19,SSE,155,4.0,6.0,95,0.00,,,0.00,WeatherCatV1.02B3,2013-03-19 02:40:00,
2013-03-18 22:45:00,29.4,28.1,30.19,SSE,155,5.0,5.0,95,0.00,,,0.00,WeatherCatV1.02B3,2013-03-19 02:45:00,
2013-03-18 22:50:00,29.4,28.1,30.19,SSE,155,6.0,8.0,95,0.00,,,0.00,WeatherCatV1.02B3,2013-03-19 02:50:00,
2013-03-18 22:55:00,29.4,28.1,30.18,SSE,155,6.0,10.0,95,0.00,,,0.00,WeatherCatV1.02B3,2013-03-19 02:55:00,
2013-03-18 23:00:00,29.3,28.0,30.19,SSE,155,3.0,5.0,95,0.00,,,0.00,WeatherCatV1.02B3,2013-03-19 03:00:00,
2013-03-18 23:05:00,29.3,28.0,30.18,SSE,155,2.0,4.0,95,0.00,,,0.00,WeatherCatV1.02B3,2013-03-19 03:05:00,
2013-03-18 23:10:00,29.3,28.0,30.18,SSE,155,3.0,5.0,95,0.00,,,0.00,WeatherCatV1.02B3,2013-03-19 03:10:00,
2013-03-18 23:16:00,29.3,28.0,30.17,SSE,155,3.0,7.0,95,0.00,,,0.00,WeatherCatV1.02B3,2013-03-19 03:16:00,
2013-03-18 23:21:00,29.3,28.0,30.16,SSE,155,4.0,6.0,95,0.00,,,0.00,WeatherCatV1.02B3,2013-03-19 03:21:00,
2013-03-18 23:26:00,29.3,28.0,30.16,SSE,155,7.0,7.0,95,0.00,,,0.00,WeatherCatV1.02B3,2013-03-19 03:26:00,
2013-03-18 23:31:00,29.3,28.0,30.16,SSE,155,2.0,2.0,95,0.00,,,0.00,WeatherCatV1.02B3,2013-03-19 03:31:00,
2013-03-18 23:36:00,29.3,28.0,30.16,SSE,155,1.0,4.0,95,0.00,,,0.00,WeatherCatV1.02B3,2013-03-19 03:36:00,
2013-03-18 23:41:00,29.3,28.0,30.15,SSE,155,3.0,8.0,95,0.00,,,0.00,WeatherCatV1.02B3,2013-03-19 03:41:00,
2013-03-18 23:46:00,29.3,28.0,30.15,SSE,155,4.0,7.0,95,0.00,,,0.00,WeatherCatV1.02B3,2013-03-19 03:46:00,
2013-03-18 23:51:00,29.3,28.0,30.15,SSE,155,1.0,6.0,95,0.00,,,0.00,WeatherCatV1.02B3,2013-03-19 03:51:00,
2013-03-18 23:56:00,29.2,28.0,30.15,SSE,155,10.0,11.0,95,0.00,,,0.00,WeatherCatV1.02B3,2013-03-19 03:56:00,